IQ1ZW Weather Reports


Display with metric or nautical units.
time (UTC)temp
F
wind
direction
speed
MPH
gust
MPH
rain 1hr
in
rain 24hr
in
rain mn
in
humidity
%
barometer
mb
20260507114734 64 150 11.0 17.0 0.00 0.00 0.00 81 1008.8
20260507114241 64 136 7.0 16.0 0.00 0.00 0.00 81 1008.9
20260507113737 65 160 10.0 14.0 0.00 0.00 0.00 81 1009.0
20260507113234 64 187 13.0 17.0 0.00 0.00 0.00 80 1009.1
20260507112734 64 205 5.0 11.0 0.00 0.00 0.00 81 1009.1
20260507112234 63 182 3.0 15.0 0.00 0.00 0.00 81 1009.1
20260507111737 62 189 10.0 16.0 0.00 0.00 0.00 81 1009.2
20260507111234 63 210 6.0 15.0 0.00 0.00 0.00 81 1009.2
20260507110740 63 182 13.0 15.0 0.00 0.00 0.00 81 1009.2
20260507110234 63 149 7.0 16.0 0.00 0.00 0.00 82 1009.2
20260507105734 64 189 5.0 13.0 0.00 0.00 0.00 83 1009.0
20260507105234 63 194 10.0 16.0 0.00 0.00 0.00 82 1008.9
20260507104734 63 210 10.0 17.0 0.00 0.00 0.00 83 1008.9
20260507104237 63 217 4.0 14.0 0.00 0.00 0.00 82 1009.0
20260507103743 64 171 6.0 14.0 0.00 0.00 0.00 82 1009.0
20260507103234 63 78 4.0 14.0 0.00 0.00 0.00 84 1008.9
20260507102734 63 161 8.0 17.0 0.00 0.00 0.00 84 1009.0
20260507102234 62 153 7.0 19.0 0.00 0.00 0.00 84 1009.0
20260507101740 62 142 6.0 21.0 0.00 0.00 0.00 86 1008.9
20260507101234 62 163 10.0 18.0 0.00 0.00 0.00 86 1008.9
20260507100734 62 168 6.0 16.0 0.00 0.00 0.00 89 1009.0
20260507100234 61 172 6.0 16.0 0.00 0.00 0.00 86 1009.1
20260507095734 61 191 6.0 15.0 0.00 0.00 0.00 85 1009.0
20260507095234 62 104 6.0 14.0 0.00 0.00 0.00 84 1009.0
20260507094734 62 202 10.0 16.0 0.00 0.00 0.00 83 1008.9
20260507094234 63 156 10.0 16.0 0.00 0.00 0.00 81 1009.0
20260507093740 64 168 9.0 19.0 0.00 0.00 0.00 82 1008.9
20260507093237 63 97 8.0 16.0 0.00 0.00 0.00 82 1008.9
20260507092734 63 198 10.0 18.0 0.00 0.00 0.00 82 1008.9
20260507092235 63 192 10.0 18.0 0.00 0.00 0.00 81 1008.8
20260507091734 63 154 9.0 16.0 0.00 0.00 0.00 82 1008.8
20260507091237 63 201 10.0 20.0 0.00 0.00 0.00 82 1008.8
20260507090734 63 136 11.0 17.0 0.00 0.00 0.00 81 1008.8
20260507090237 63 199 8.0 18.0 0.00 0.00 0.00 82 1008.8
20260507085735 62 192 7.0 18.0 0.00 0.00 0.00 82 1008.8
20260507085241 63 126 13.0 18.0 0.00 0.00 0.00 82 1008.7
20260507084737 63 168 7.0 20.0 0.00 0.00 0.00 81 1008.7
20260507084241 62 84 3.0 20.0 0.00 0.00 0.00 83 1008.6
20260507083738 62 153 13.0 20.0 0.00 0.00 0.00 82 1008.4
20260507083235 62 164 12.0 15.0 0.00 0.00 0.00 83 1008.4
20260507082738 62 188 3.0 18.0 0.00 0.00 0.00 84 1008.5
20260507082238 61 150 10.0 17.0 0.00 0.00 0.00 84 1008.5
20260507081735 61 163 7.0 19.0 0.00 0.00 0.00 84 1008.4
20260507081235 61 146 13.0 18.0 0.00 0.00 0.00 82 1008.2
20260507080735 62 140 6.0 17.0 0.00 0.00 0.00 81 1008.1
20260507080238 61 167 5.0 17.0 0.00 0.00 0.00 82 1008.3
20260507075739 61 165 10.0 17.0 0.00 0.00 0.00 82 1008.3
20260507075245 61 142 7.0 17.0 0.00 0.00 0.00 82 1008.1
20260507074735 61 213 9.0 15.0 0.00 0.00 0.00 81 1008.0
20260507074238 62 130 8.0 16.0 0.00 0.00 0.00 80 1008.0
20260507073735 62 130 4.0 14.0 0.00 0.00 0.00 78 1007.8
20260507073238 62 157 5.0 16.0 0.00 0.00 0.00 79 1007.9
20260507072741 62 118 2.0 13.0 0.00 0.00 0.00 79 1008.0
20260507072244 62 215 6.0 12.0 0.00 0.00 0.00 79 1007.9
20260507071735 62 140 2.0 10.0 0.00 0.00 0.00 79 1007.9
20260507071244 62 87 4.0 8.0 0.00 0.00 0.00 79 1008.0
20260507070735 61 191 5.0 13.0 0.00 0.00 0.00 79 1008.0
20260507070241 62 15 4.0 12.0 0.00 0.00 0.00 78 1007.8
20260507065742 62 189 2.0 8.0 0.00 0.01 0.00 78 1007.8
20260507065238 62 63 1.0 5.0 0.00 0.03 0.00 80 1007.8
20260507064739 62 331 1.0 3.0 0.00 0.03 0.00 81 1007.7
20260507064239 62 181 2.0 5.0 0.00 0.03 0.00 80 1007.8
20260507063735 62 150 1.0 6.0 0.00 0.03 0.00 80 1007.8
20260507063236 62 158 2.0 8.0 0.00 0.03 0.00 80 1007.8
20260507062735 62 125 3.0 8.0 0.00 0.04 0.00 80 1007.8
20260507062235 62 157 2.0 6.0 0.00 0.04 0.00 82 1007.7
20260507061738 61 205 0.0 5.0 0.00 0.04 0.00 82 1007.7
20260507061236 61 338 1.0 3.0 0.00 0.04 0.00 82 1007.7
20260507060738 61 11 0.0 10.0 0.00 0.04 0.00 83 1007.6
20260507060238 60 133 9.0 10.0 0.00 0.04 0.00 83 1007.6
20260507055736 60 161 4.0 4.0 0.00 0.04 0.00 84 1007.6
20260507055240 60 237 1.0 5.0 0.00 0.04 0.00 85 1007.6
20260507054735 59 171 1.0 6.0 0.00 0.04 0.00 85 1007.7
20260507054238 59 94 3.0 7.0 0.00 0.04 0.00 84 1007.7
20260507053735 59 126 1.0 4.0 0.00 0.04 0.00 85 1007.6
20260507053241 59 132 0.0 1.0 0.00 0.04 0.00 85 1007.6
20260507052735 59 132 1.0 3.0 0.00 0.04 0.00 85 1007.6
20260507052235 59 123 0.0 7.0 0.00 0.04 0.00 85 1007.5
20260507051735 59 180 0.0 4.0 0.00 0.04 0.00 85 1007.5
20260507051244 59 126 0.0 6.0 0.00 0.04 0.00 85 1007.4
20260507050735 59 142 1.0 7.0 0.00 0.04 0.00 85 1007.3
20260507050241 58 143 4.0 10.0 0.00 0.04 0.00 85 1007.1
20260507045736 58 146 1.0 8.0 0.00 0.04 0.00 86 1007.1
20260507045236 59 158 2.0 5.0 0.00 0.05 0.00 85 1007.2
20260507044736 59 135 1.0 7.0 0.00 0.05 0.00 86 1007.0
20260507044238 59 129 4.0 13.0 0.00 0.05 0.00 86 1007.1
20260507043738 59 184 0.0 6.0 0.00 0.05 0.00 86 1007.0
20260507043242 59 184 4.0 9.0 0.00 0.05 0.00 86 1007.0
20260507042735 59 156 6.0 7.0 0.00 0.05 0.00 86 1007.0
20260507042235 59 123 0.0 7.0 0.00 0.05 0.00 86 1007.0
20260507041738 59 146 5.0 6.0 0.00 0.05 0.00 86 1006.9
20260507041241 59 144 1.0 8.0 0.00 0.06 0.00 86 1006.8
20260507040736 59 135 3.0 9.0 0.00 0.07 0.00 86 1006.8
20260507040238 59 133 2.0 9.0 0.00 0.07 0.00 86 1006.9
20260507035735 59 133 7.0 9.0 0.00 0.08 0.00 86 1006.8
20260507035238 59 147 1.0 11.0 0.00 0.09 0.00 86 1006.9
20260507034742 59 164 8.0 10.0 0.00 0.09 0.00 86 1006.9
20260507034236 59 137 7.0 8.0 0.00 0.09 0.00 86 1006.9
20260507033738 59 146 5.0 9.0 0.00 0.09 0.00 86 1006.9
20260507033235 59 129 6.0 9.0 0.00 0.09 0.00 86 1006.9
20260507032738 59 116 5.0 6.0 0.00 0.09 0.00 86 1006.8
20260507032238 59 142 0.0 10.0 0.00 0.09 0.00 86 1006.8
20260507031735 59 182 2.0 11.0 0.00 0.09 0.00 86 1006.9
20260507031235 59 213 2.0 8.0 0.00 0.09 0.00 86 1006.9
20260507030735 59 161 1.0 11.0 0.00 0.09 0.00 86 1006.9
20260507030236 59 165 0.0 8.0 0.00 0.09 0.00 86 1006.9
20260507025735 59 136 2.0 11.0 0.00 0.09 0.00 86 1006.9
20260507025239 59 137 5.0 8.0 0.00 0.09 0.00 86 1006.8
20260507024735 59 157 3.0 15.0 0.00 0.09 0.00 85 1006.8
20260507024241 59 142 1.0 15.0 0.00 0.09 0.00 85 1006.8
20260507023738 59 151 6.0 12.0 0.00 0.09 0.00 85 1006.8
20260507023241 59 168 2.0 10.0 0.00 0.10 0.00 85 1006.8
20260507022736 59 163 3.0 11.0 0.00 0.10 0.00 85 1006.8
20260507022241 59 244 8.0 11.0 0.00 0.10 0.00 85 1006.8
20260507021738 59 164 0.0 8.0 0.00 0.11 0.00 85 1006.9
20260507021239 59 206 7.0 11.0 0.00 0.12 0.00 85 1006.8
20260507020735 59 143 10.0 10.0 0.00 0.13 0.00 85 1006.8
20260507020232 59 182 0.0 8.0 0.00 0.14 0.00 85 1006.8
20260507015732 59 142 1.0 6.0 0.00 0.14 0.00 85 1006.8
20260507015238 59 165 6.0 9.0 0.00 0.17 0.00 85 1006.7
20260507014732 59 167 1.0 8.0 0.00 0.18 0.00 85 1006.7
20260507014235 59 154 3.0 9.0 0.00 0.22 0.00 85 1006.6
20260507013732 59 156 3.0 10.0 0.00 0.24 0.00 85 1006.7
20260507013232 59 130 5.0 11.0 0.00 0.26 0.00 85 1006.8
20260507012732 59 194 5.0 9.0 0.00 0.28 0.00 85 1006.8
20260507012233 59 147 3.0 9.0 0.00 0.29 0.00 85 1006.8
20260507011735 59 140 2.0 12.0 0.00 0.32 0.00 85 1006.9
20260507011232 59 125 6.0 11.0 0.00 0.38 0.00 84 1006.9
20260507010735 60 167 7.0 12.0 0.00 0.39 0.00 84 1006.9
20260507010232 59 133 7.0 11.0 0.00 0.39 0.00 84 1006.9
20260507005732 60 85 9.0 11.0 0.00 0.39 0.00 85 1007.0
20260507005232 60 182 8.0 12.0 0.00 0.40 0.00 84 1007.0
20260507004732 60 163 8.0 12.0 0.00 0.40 0.00 84 1007.0
20260507004238 60 150 10.0 11.0 0.00 0.40 0.00 85 1007.1
20260507003735 60 202 4.0 11.0 0.00 0.40 0.00 85 1006.9
20260507003232 60 146 10.0 12.0 0.00 0.40 0.00 85 1006.9
20260507002732 59 175 6.0 16.0 0.00 0.40 0.00 85 1006.9
20260507002235 60 174 4.0 13.0 0.00 0.40 0.00 84 1006.9
20260507001732 60 174 7.0 13.0 0.00 0.40 0.00 84 1006.9
20260507001232 60 192 5.0 15.0 0.00 0.41 0.00 84 1006.8
20260507000735 60 188 7.0 17.0 0.00 0.42 0.00 84 1006.8
20260507000234 60 101 4.0 14.0 0.00 0.42 0.00 84 1006.8
20260506235735 60 170 11.0 12.0 0.00 0.42 0.00 84 1006.9
20260506235238 60 188 8.0 15.0 0.00 0.42 0.00 84 1007.0
20260506234735 60 170 5.0 13.0 0.00 0.42 0.00 83 1007.0
20260506234232 60 212 11.0 14.0 0.00 0.42 0.00 83 1007.0
20260506233738 60 171 6.0 15.0 0.00 0.42 0.00 83 1007.0
20260506233235 60 170 10.0 16.0 0.00 0.42 0.00 82 1007.0
20260506232735 60 163 9.0 14.0 0.00 0.42 0.00 82 1007.1
20260506232235 60 191 8.0 15.0 0.00 0.42 0.00 82 1007.0
20260506231739 60 163 8.0 13.0 0.00 0.42 0.00 82 1007.0
20260506231232 60 164 9.0 14.0 0.00 0.42 0.00 81 1007.1
20260506230736 60 149 6.0 15.0 0.00 0.42 0.00 81 1007.0
20260506230232 60 156 8.0 11.0 0.00 0.42 0.00 82 1007.1
20260506225732 60 158 3.0 12.0 0.00 0.42 0.00 81 1007.0
20260506225238 60 196 5.0 12.0 0.00 0.42 0.00 82 1007.1
20260506224732 60 164 4.0 13.0 0.00 0.42 0.00 82 1007.1
20260506224232 60 195 3.0 14.0 0.00 0.43 0.00 81 1007.1
20260506223735 60 199 7.0 14.0 0.00 0.43 0.00 82 1007.0
20260506223232 60 182 9.0 12.0 0.00 0.43 0.00 82 1007.0
20260506222735 60 154 10.0 12.0 0.00 0.43 0.00 82 1007.0
20260506222232 60 144 7.0 13.0 0.00 0.43 0.00 82 1007.0
20260506221735 60 184 15.0 15.0 0.00 0.45 0.00 82 1007.1
20260506221235 60 142 7.0 11.0 0.00 0.48 0.00 83 1007.1
20260506220735 60 180 3.0 9.0 0.00 0.49 0.00 82 1007.1
20260506220239 60 188 6.0 10.0 0.00 0.49 0.00 83 1007.1
20260506215732 60 192 1.0 13.0 0.00 0.49 0.00 83 1007.0
20260506215235 60 196 6.0 14.0 0.00 0.49 0.00 83 1007.1
20260506214738 60 133 2.0 14.0 0.00 0.49 0.00 83 1007.0
20260506214241 60 123 3.0 17.0 0.00 0.49 0.00 82 1007.0
20260506213732 60 161 6.0 16.0 0.00 0.49 0.00 82 1007.0
20260506213236 60 194 12.0 15.0 0.00 0.49 0.00 82 1007.0
20260506212735 60 196 7.0 13.0 0.00 0.49 0.00 82 1007.1
20260506212232 60 185 11.0 11.0 0.00 0.49 0.00 83 1007.1
20260506211738 60 168 4.0 15.0 0.00 0.49 0.00 83 1007.1
20260506211241 60 165 7.0 15.0 0.00 0.49 0.00 82 1007.0
20260506210735 60 146 5.0 15.0 0.00 0.49 0.00 83 1007.1
20260506210238 60 163 11.0 12.0 0.00 0.49 0.00 83 1007.0
20260506205738 60 177 7.0 13.0 0.00 0.49 0.00 83 1007.1
20260506205232 60 160 6.0 17.0 0.00 0.49 0.00 83 1007.1
20260506204733 60 241 3.0 14.0 0.00 0.49 0.00 84 1007.0
20260506204232 60 234 5.0 10.0 0.00 0.49 0.00 84 1007.0
20260506203735 60 180 6.0 15.0 0.00 0.49 0.00 83 1006.8
20260506203239 60 188 12.0 13.0 0.00 0.49 0.00 83 1006.8
20260506202733 60 150 8.0 13.0 0.00 0.49 0.00 83 1006.7
20260506202232 60 210 6.0 14.0 0.00 0.49 0.00 83 1006.7
20260506201733 60 184 4.0 14.0 0.00 0.49 0.00 83 1006.8
20260506201232 60 309 4.0 10.0 0.00 0.49 0.00 83 1006.7
20260506200733 60 150 6.0 13.0 0.00 0.49 0.00 83 1006.6
20260506200232 60 149 9.0 11.0 0.00 0.49 0.00 83 1006.6
20260506195738 60 165 10.0 12.0 0.00 0.49 0.00 83 1006.4
20260506195233 60 153 6.0 14.0 0.00 0.49 0.00 83 1006.4
20260506194733 60 122 4.0 11.0 0.00 0.49 0.00 83 1006.4
20260506194232 60 143 5.0 11.0 0.00 0.49 0.00 83 1006.3
20260506193736 60 175 7.0 16.0 0.00 0.49 0.00 83 1006.3
20260506193233 60 165 11.0 16.0 0.00 0.49 0.00 83 1006.3
20260506192733 60 182 5.0 12.0 0.00 0.49 0.00 83 1006.2
20260506192233 60 164 8.0 13.0 0.00 0.49 0.00 83 1006.1
20260506191733 60 180 5.0 14.0 0.00 0.49 0.00 83 1006.1
20260506191233 60 182 7.0 13.0 0.00 0.49 0.00 84 1006.0
20260506190736 60 180 4.0 8.0 0.00 0.49 0.00 85 1006.0
20260506190239 60 188 6.0 8.0 0.00 0.49 0.00 85 1005.8
20260506185733 60 167 7.0 17.0 0.00 0.49 0.00 85 1005.8
20260506185233 60 140 7.0 11.0 0.00 0.49 0.00 85 1005.7
20260506184736 60 174 10.0 12.0 0.00 0.49 0.00 86 1005.6
20260506184233 60 164 7.0 14.0 0.00 0.49 0.00 86 1005.7
20260506183733 60 144 6.0 17.0 0.00 0.49 0.00 86 1005.6
20260506183234 60 167 9.0 15.0 0.00 0.49 0.00 86 1005.5
20260506182739 60 182 2.0 15.0 0.00 0.49 0.00 87 1005.4
20260506182233 60 206 6.0 13.0 0.00 0.49 0.00 87 1005.3
20260506181733 60 142 6.0 13.0 0.00 0.49 0.00 87 1005.3
20260506181236 60 208 11.0 13.0 0.00 0.49 0.00 87 1005.2
20260506180733 60 118 8.0 12.0 0.00 0.49 0.00 87 1005.0
20260506180233 60 97 5.0 12.0 0.00 0.49 0.00 87 1004.9
20260506175736 60 187 9.0 11.0 0.00 0.49 0.00 87 1004.9
20260506175237 60 157 8.0 12.0 0.00 0.49 0.00 87 1004.9
20260506174733 60 168 4.0 18.0 0.00 0.49 0.00 87 1004.9
20260506174233 60 135 13.0 13.0 0.00 0.49 0.00 87 1004.8
20260506173733 60 146 8.0 16.0 0.00 0.49 0.00 86 1004.8
20260506173233 60 199 11.0 16.0 0.00 0.49 0.00 87 1004.9
20260506172733 60 163 5.0 13.0 0.00 0.49 0.00 86 1004.8
20260506172236 60 143 10.0 17.0 0.00 0.49 0.00 86 1004.8
20260506171739 60 154 13.0 16.0 0.00 0.49 0.00 85 1004.8
20260506171233 60 191 9.0 18.0 0.00 0.49 0.00 85 1004.7
20260506170739 61 209 12.0 20.0 0.00 0.49 0.00 84 1004.7
20260506170240 61 139 9.0 17.0 0.00 0.49 0.00 84 1004.7
20260506165733 61 189 9.0 18.0 0.00 0.49 0.00 84 1004.6
20260506165236 61 182 14.0 21.0 0.00 0.49 0.00 84 1004.7
20260506164734 61 185 15.0 19.0 0.00 0.49 0.00 84 1004.8
20260506164242 61 196 16.0 19.0 0.00 0.49 0.00 84 1004.9
20260506163733 61 212 13.0 18.0 0.00 0.49 0.00 84 1004.8
20260506163233 61 165 11.0 18.0 0.00 0.49 0.00 84 1004.7
20260506162734 61 130 7.0 19.0 0.00 0.49 0.00 85 1004.8
20260506162233 61 164 6.0 19.0 0.00 0.49 0.00 84 1004.7
20260506161733 61 198 12.0 18.0 0.00 0.49 0.00 84 1004.7
20260506161237 62 202 7.0 15.0 0.00 0.49 0.00 84 1004.7
20260506160736 62 187 7.0 16.0 0.00 0.49 0.00 84 1004.7
20260506160236 62 167 5.0 17.0 0.00 0.49 0.00 86 1004.7
20260506155733 61 99 6.0 17.0 0.00 0.49 0.00 86 1004.6
20260506155233 61 213 9.0 20.0 0.00 0.49 0.00 85 1004.6
20260506154733 62 208 5.0 17.0 0.00 0.49 0.00 85 1004.6
20260506154236 62 149 8.0 15.0 0.00 0.49 0.00 85 1004.7
20260506153733 62 154 6.0 16.0 0.00 0.49 0.00 85 1004.7
20260506153233 62 164 4.0 16.0 0.00 0.49 0.00 86 1004.6
20260506152733 62 164 10.0 15.0 0.00 0.49 0.00 85 1004.5
20260506152233 62 164 10.0 18.0 0.00 0.49 0.00 85 1004.6
20260506151739 62 237 4.0 18.0 0.00 0.49 0.00 85 1004.6
20260506151233 62 208 10.0 16.0 0.00 0.49 0.00 85 1004.6
20260506150733 62 154 6.0 133.0 0.00 0.49 0.00 85 1004.6
20260506150239 62 220 4.0 16.0 0.00 0.49 0.00 85 1004.5
20260506145733 62 196 7.0 16.0 0.00 0.49 0.00 83 1004.6
20260506145236 62 203 6.0 18.0 0.00 0.49 0.00 85 1004.5
20260506144736 62 210 13.0 16.0 0.00 0.49 0.00 87 1004.5
20260506144233 62 220 10.0 17.0 0.00 0.49 0.00 86 1004.6
20260506143739 62 201 14.0 18.0 0.00 0.49 0.00 85 1004.6
20260506143236 62 163 7.0 15.0 0.00 0.49 0.00 86 1004.6
20260506142733 62 150 11.0 16.0 0.00 0.49 0.00 85 1004.5
20260506142236 62 163 13.0 19.0 0.00 0.49 0.00 83 1004.5
20260506141733 62 163 8.0 16.0 0.00 0.49 0.00 84 1004.6
20260506141237 63 139 7.0 12.0 0.00 0.49 0.00 86 1004.6
20260506140733 62 198 15.0 18.0 0.00 0.49 0.00 86 1004.7
20260506140233 62 163 5.0 16.0 0.00 0.49 0.00 84 1004.7
20260506135736 63 199 9.0 16.0 0.00 0.49 0.00 83 1004.8
20260506135233 63 172 8.0 16.0 0.00 0.49 0.00 82 1004.8
20260506134737 63 144 4.0 14.0 0.00 0.49 0.00 84 1004.8
20260506134237 63 198 9.0 14.0 0.00 0.49 0.00 82 1004.8
20260506133736 63 160 6.0 16.0 0.00 0.49 0.00 83 1004.8
20260506133236 63 167 6.0 18.0 0.00 0.49 0.00 83 1004.8
20260506132740 62 187 8.0 15.0 0.00 0.49 0.00 82 1004.9
20260506132233 63 195 5.0 17.0 0.00 0.49 0.00 85 1004.8
20260506131736 63 208 9.0 14.0 0.00 0.49 0.00 84 1004.9
20260506131236 63 250 2.0 14.0 0.00 0.49 0.00 86 1004.8
20260506130739 63 203 7.0 13.0 0.00 0.49 0.00 86 1004.9
20260506130233 62 208 6.0 13.0 0.00 0.49 0.00 88 1004.8
20260506125733 63 202 14.0 16.0 0.00 0.49 0.00 86 1004.9
20260506125236 63 175 7.0 13.0 0.00 0.49 0.00 87 1004.8
20260506124734 63 196 7.0 13.0 0.00 0.49 0.00 89 1004.8
20260506124242 62 216 11.0 17.0 0.00 0.49 0.00 90 1004.8
20260506123742 62 160 8.0 17.0 0.00 0.49 0.00 90 1004.7
20260506123237 62 146 11.0 17.0 0.00 0.49 0.00 90 1004.6
20260506122734 62 185 11.0 17.0 0.00 0.49 0.00 89 1004.6
20260506122236 63 196 2.0 15.0 0.00 0.49 0.00 90 1004.6
20260506121733 62 196 8.0 16.0 0.00 0.49 0.00 90 1004.5
20260506121236 62 170 10.0 17.0 0.00 0.49 0.00 91 1004.5
20260506120736 62 156 6.0 19.0 0.00 0.49 0.00 90 1004.4
20260506120237 62 185 10.0 15.0 0.00 0.49 0.00 91 1004.5
20260506115736 62 206 9.0 14.0 0.00 0.49 0.00 91 1004.5
20260506115234 62 194 5.0 14.0 0.00 0.49 0.00 91 1004.5